User: anonymous   Login
Location: Mactaquac Provincial Park
(45.9573°N, 66.8897°W)
Time: 10:25:24
(UTC-03:00)
Language:

Cosmos 1867 - Orbit

View from above orbital plane
View from above orbital plane
View from above satellite
View from above satellite

Ground track
Ground track

The orbit data is extracted from the following two-line orbital elements,

1 18187U 87060A   14297.89163978  .00000016  00000-0  43960-4 0  2031
2 18187 065.0125 052.9891 0013890 266.6260 093.3235 14.31030054425725
Epoch (UTC): 24 October 2014 21:23:57
Eccentricity: 0.0013890
inclination: 65.0125°
perigee height: 778 km
apogee height: 798 km
right ascension of ascending node: 52.9891°
argument of perigee: 266.6260°
revolutions per day: 14.31030054
mean anomaly at epoch: 93.3235°
orbit number at epoch: 42572

The dashed part of the orbit path shows where the satellite is in the earth's shadow,  

DLR